Stations météo

Publicité
Dalwhinnie, Grande-Bretagne (99005): Température de l'air & dewpoint: 11.07.2018 20:00:00 - 17.07.2018 20:00:00 (BST)Dalwhinnie, Grande-Bretagne (99005): Quantités de précipitations: 11.07.2018 20:00:00 - 17.07.2018 20:00:00 (BST)
Date & Time tt [°C] td [°C] rr [mm]
17.07.2018 20:00:00 13,6 7,3 0,0
17.07.2018 19:00:00 14,2 7,2 0,0
17.07.2018 18:00:00 15,0 8,3 0,0
17.07.2018 17:00:00 14,3 8,0 0,0
17.07.2018 16:00:00 15,6 8,4 0,0
17.07.2018 15:00:00 15,4 8,8 0,0
17.07.2018 14:00:00 16,1 9,3 0,0
17.07.2018 13:00:00 14,2 9,3 0,0
17.07.2018 12:00:00 14,3 9,0 0,0
17.07.2018 11:00:00 13,3 10,6 0,0
17.07.2018 10:00:00 11,6 10,2 0,0
17.07.2018 09:00:00 11,8 10,1 0,0
17.07.2018 08:00:00 12,0 9,1 0,0
17.07.2018 07:00:00 9,4 8,0 0,0
17.07.2018 06:00:00 8,9 7,6 0,0
17.07.2018 05:00:00 8,0 6,2 0,0
17.07.2018 04:00:00 7,4 5,8 0,0
17.07.2018 03:00:00 8,5 6,6 0,0
17.07.2018 02:00:00 10,7 7,9 0,0
17.07.2018 01:00:00 9,8 7,3 0,0
17.07.2018 00:00:00 10,1 7,2 0,0
16.07.2018 23:00:00 11,6 8,0 0,0
16.07.2018 22:00:00 12,7 7,6 0,0
16.07.2018 21:00:00 13,9 8,0 0,0
16.07.2018 20:00:00 14,7 9,2 0,0
16.07.2018 19:00:00 14,7 9,2 0,0
16.07.2018 18:00:00 15,1 8,7 0,0
16.07.2018 17:00:00 14,5 9,8 0,0
16.07.2018 16:00:00 16,2 7,9 0,0
16.07.2018 15:00:00 16,2 7,9 0,0
16.07.2018 14:00:00 16,2 8,3 0,0
16.07.2018 13:00:00 16,0 9,7 0,0
16.07.2018 12:00:00 17,1 10,3 0,0
16.07.2018 11:00:00 14,4 10,3 0,0
16.07.2018 10:00:00 12,8 10,2 0,0
16.07.2018 09:00:00 12,8 10,8 0,0
16.07.2018 08:00:00 12,5 11,1 0,6
16.07.2018 07:00:00 12,5 11,0 0,2
16.07.2018 06:00:00 13,0 11,5 0,0
16.07.2018 05:00:00 14,3 13,4 0,0
16.07.2018 04:00:00 15,4 14,3 0,0
16.07.2018 03:00:00 15,7 14,1 0,0
16.07.2018 02:00:00 15,7 14,0 0,0
16.07.2018 01:00:00 15,6 14,0 0,0
16.07.2018 00:00:00 15,5 14,3 0,0
15.07.2018 23:00:00 15,8 14,2 0,0
15.07.2018 22:00:00 15,8 14,5 0,0
15.07.2018 21:00:00 15,8 14,6 0,0
15.07.2018 20:00:00 16,1 14,7 0,4
15.07.2018 19:00:00 16,2 14,5 0,2
15.07.2018 18:00:00 16,5 15,1 0,8
15.07.2018 17:00:00 16,7 15,1 0,0
15.07.2018 16:00:00 16,7 15,2 0,2
15.07.2018 15:00:00 17,1 14,7 0,0
15.07.2018 14:00:00 17,3 15,1 0,0
15.07.2018 13:00:00 16,8 15,3 0,6
15.07.2018 12:00:00 16,6 15,0 0,6
15.07.2018 11:00:00 17,2 14,4 0,0
15.07.2018 10:00:00 17,6 14,4 0,0
15.07.2018 09:00:00 15,8 14,4 0,0
15.07.2018 08:00:00 15,7 14,2 0,0
15.07.2018 07:00:00 15,7 14,0 0,0
15.07.2018 06:00:00 15,5 14,0 0,0
15.07.2018 05:00:00 15,4 13,9 0,0
15.07.2018 04:00:00 15,3 14,0 0,0
15.07.2018 03:00:00 15,3 13,9 0,0
15.07.2018 02:00:00 15,2 13,7 0,0
15.07.2018 01:00:00 15,5 13,5 0,0
15.07.2018 00:00:00 15,2 13,6 0,0
14.07.2018 23:00:00 15,6 13,4 0,0
14.07.2018 22:00:00 16,1 13,3 0,0
14.07.2018 21:00:00 16,6 12,9 0,0
14.07.2018 20:00:00 17,0 12,3 0,0
14.07.2018 19:00:00 17,9 12,9 0,0
14.07.2018 18:00:00 18,4 12,6 0,0
14.07.2018 17:00:00 18,7 12,3 0,0
14.07.2018 16:00:00 19,0 11,8 0,0
14.07.2018 15:00:00 19,5 11,6 0,0
14.07.2018 14:00:00 18,0 11,6 0,0
14.07.2018 13:00:00 17,7 11,7 0,0
14.07.2018 12:00:00 18,0 11,5 0,0
14.07.2018 11:00:00 16,6 11,6 0,0
14.07.2018 10:00:00 16,3 10,7 0,0
14.07.2018 09:00:00 15,0 11,1 0,0
14.07.2018 08:00:00 15,0 10,9 0,0
14.07.2018 07:00:00 13,3 10,0 0,0
14.07.2018 06:00:00 12,7 10,1 0,0
14.07.2018 05:00:00 12,0 9,7 0,0
14.07.2018 04:00:00 11,5 9,4 0,0
14.07.2018 03:00:00 9,1 7,9 0,0
14.07.2018 02:00:00 9,5 8,5 0,0
14.07.2018 01:00:00 9,5 7,7 0,0
14.07.2018 00:00:00 10,1 8,5 0,0
13.07.2018 23:00:00 11,2 9,0 0,0
13.07.2018 22:00:00 14,0 9,9 0,0
13.07.2018 21:00:00 15,8 10,2 0,0
13.07.2018 20:00:00 17,1 10,5 0,0
13.07.2018 19:00:00 17,8 10,7 0,0
13.07.2018 18:00:00 18,0 10,3 0,0
13.07.2018 17:00:00 19,0 10,3 0,0
13.07.2018 16:00:00 18,5 11,6 0,0
13.07.2018 15:00:00 18,7 11,8 0,0
13.07.2018 14:00:00 17,2 11,2 0,0
13.07.2018 13:00:00 16,7 12,4 0,0
13.07.2018 12:00:00 16,4 12,6 0,0
13.07.2018 11:00:00 15,2 12,2 0,0
13.07.2018 10:00:00 14,7 12,1 0,0
13.07.2018 09:00:00 14,3 11,7 0,0
13.07.2018 08:00:00 14,0 11,6 0,0
13.07.2018 07:00:00 13,5 11,3 0,0
13.07.2018 06:00:00 13,1 11,5 0,0
13.07.2018 05:00:00 12,9 11,3 0,0
13.07.2018 04:00:00 13,1 11,2 0,0
13.07.2018 03:00:00 13,0 11,3 0,0
13.07.2018 02:00:00 13,2 11,5 0,0
13.07.2018 01:00:00 13,5 11,8 0,0
13.07.2018 00:00:00 13,9 12,2 0,0
12.07.2018 23:00:00 14,3 12,5 0,0
12.07.2018 22:00:00 14,6 12,6 0,0
12.07.2018 21:00:00 15,2 12,1 0,0
12.07.2018 20:00:00 16,5 11,7 0,0
12.07.2018 19:00:00 17,1 12,3 0,0
12.07.2018 18:00:00 17,2 12,7 0,0
12.07.2018 17:00:00 17,5 12,4 0,0
12.07.2018 16:00:00 17,3 12,6 0,0
12.07.2018 15:00:00 17,8 11,8 0,0
12.07.2018 14:00:00 17,7 13,0 0,0
12.07.2018 13:00:00 16,5 11,9 0,0
12.07.2018 12:00:00 15,2 12,4 0,0
12.07.2018 11:00:00 14,2 11,5 0,0
12.07.2018 10:00:00 13,9 11,9 0,0
12.07.2018 09:00:00 12,9 11,6 0,0
12.07.2018 08:00:00 11,9 11,4 0,0
12.07.2018 07:00:00 11,6 11,2 0,0
12.07.2018 06:00:00 11,3 11,0 0,0
12.07.2018 05:00:00 11,3 11,0 0,0
12.07.2018 04:00:00 11,3 11,0 0,4
12.07.2018 03:00:00 11,5 11,2 0,2
12.07.2018 02:00:00 11,7 11,4 0,4
12.07.2018 01:00:00 11,6 11,3 0,4
12.07.2018 00:00:00 11,9 11,5 0,0
11.07.2018 23:00:00 12,2 11,6 0,2
11.07.2018 22:00:00 12,5 11,8 0,0
11.07.2018 21:00:00 12,8 12,2 0,4
11.07.2018 20:00:00 13,3 12,5 0,2

tt = Température de l'air
td = dewpoint
rr = Quantités de précipitations

stations d'obs. à proximité